This demonstration page uses our WeatherBlox Daily Observations layout. Learn more.

Hourly Observations for February 1, 2020

Temp ( °F °C ) Dew Point ( °F °C ) Humidity (%) Winds ( mph kmh ) Pressure ( in mb ) Visibility ( mi km ) Precip ( " mm )
12:54 am 00:54 Cloudy 33 0.6 27 -2.8 78 78 W 3 6 30.11 1020 10 16.0934 0 0
1:31 am 01:31 Mostly Clear 32 0 27 -2.8 82 82 W 3 6 30.15 1021 10 16.0934 0 0
1:54 am 01:54 Clear 31 -0.6 27 -2.8 85 85 WSW 5 7 30.11 1020 10 16.0934 0 0
2:54 am 02:54 Clear 29 -1.7 25 -3.9 85 85 WSW 7 11 30.09 1019 9 14.48406 0 0
3:54 am 03:54 Clear 28 -2.2 24 -4.4 85 85 SW 5 7 30.08 1019 9 14.48406 0 0
4:54 am 04:54 Clear 24 -4.4 21 -6.1 88 88 S 5 7 30.07 1018 7 11.26538 0 0
5:54 am 05:54 Clear 23 -5 20 -6.7 88 88 S 5 7 30.06 1018 7 11.26538 0 0
6:54 am 06:54 Clear 23 -5 20 -6.7 88 88 S 6 9 30.05 1018 9 14.48406 0 0
7:54 am 07:54 Sunny 24 -4.4 21 -6.1 88 88 SSE 5 7 30.04 1017 9 14.48406 0 0
8:54 am 08:54 Sunny 29 -1.7 25 -3.9 85 85 SSW 5 7 30.02 1017 10 16.0934 0 0
9:54 am 09:54 Sunny 34 1.1 26 -3.3 73 73 SW 7 11 30.03 1017 10 16.0934 0 0
10:54 am 10:54 Sunny 38 3.3 28 -2.2 68 68 SW 6 9 30.02 1017 10 16.0934 0 0
11:54 am 11:54 Sunny 42 5.6 30 -1.1 62 62 WSW 9 15 29.98 1015 10 16.0934 0 0
12:54 pm 12:54 Sunny 46 7.8 33 0.6 61 61 SSW 9 15 29.94 1014 10 16.0934 0 0
1:54 pm 13:54 Sunny 48 8.9 33 0.6 56 56 SSW 12 19 29.9 1012 10 16.0934 0 0
2:54 pm 14:54 Sunny 48 8.9 34 1.1 58 58 SW 14 22 29.88 1012 10 16.0934 0 0
3:54 pm 15:54 Sunny 48 8.9 36 2.2 63 63 SW 14 22 29.88 1012 10 16.0934 0 0
4:54 pm 16:54 Sunny 47 8.3 36 2.2 66 66 SSW 8 13 29.86 1011 10 16.0934 0 0
8:54 pm 20:54 Clear 46 7.8 34 1.1 63 63 WSW 14 22 29.82 1010 10 16.0934 0 0
9:54 pm 21:54 Clear 46 7.8 34 1.1 63 63 W 8 13 29.8 1009 10 16.0934 0 0
10:54 pm 22:54 Clear 45 7.2 33 0.6 63 63 WSW 8 13 29.79 1009 10 16.0934 0 0
11:54 pm 23:54 Clear 42 5.6 31 -0.6 65 65 Calm 29.79 1009 10 16.0934 0 0

Powered by AerisWeather